HB9TUF-13 Weather Reports


Display with metric or nautical units.
time (UTC)temp
F
wind
direction
speed
MPH
gust
MPH
rain 1hr
in
rain 24hr
in
rain mn
in
humidity
%
barometer
mb
20260506003948 48 125 0.0 0.0 0.00 0.09 0.00 100
20260506002403 48 125 0.0 0.0 0.00 0.09 0.00 100
20260506000818 48 125 0.0 0.0 0.00 0.09 0.00 100
20260505235233 48 125 0.0 0.0 0.00 0.09 0.00 100
20260505233648 48 125 0.0 0.0 0.00 0.09 0.00 100
20260505232103 48 125 0.0 0.0 0.00 0.09 0.00 100
20260505230518 48 126 0.0 0.0 0.00 0.09 0.00 100
20260505224933 50 126 0.0 0.0 0.00 0.10 0.00 100
20260505223348 50 126 0.0 0.0 0.00 0.10 0.00 100
20260505221803 50 126 0.0 0.0 0.00 0.10 0.00 100
20260505220218 48 126 0.0 0.0 0.00 0.09 0.00 100
20260505214634 50 126 0.0 0.0 0.00 0.10 0.00 100
20260505213049 50 126 0.0 0.0 0.00 0.10 0.00 100
20260505211504 50 126 0.0 0.0 0.00 0.10 0.00 100
20260505204334 51 126 0.0 0.0 0.00 0.11 0.00 100
20260505202750 51 127 0.0 0.0 0.00 0.11 0.00 100
20260505201205 51 127 0.0 0.0 0.00 0.11 0.00 100
20260505195620 53 127 0.0 0.0 0.00 0.12 0.00 100
20260505192451 53 127 0.0 0.0 0.00 0.12 0.00 100
20260505190907 55 127 0.0 0.0 0.00 0.13 0.00 100
20260505185323 55 127 0.0 0.0 0.00 0.13 0.00 100
20260505183739 57 128 0.0 0.0 0.00 0.14 0.00 100
20260505180610 59 142 0.0 0.0 0.00 0.15 0.00 100
20260505175026 59 142 0.0 0.0 0.00 0.15 0.00 100
20260505173442 59 142 0.0 0.0 0.00 0.15 0.00 100
20260505170314 57 130 0.0 0.0 0.00 0.14 0.00 100
20260505164730 57 140 0.0 0.0 0.00 0.14 0.00 100
20260505163146 57 136 0.0 0.0 0.00 0.14 0.00 100
20260505161602 57 136 0.0 0.0 0.00 0.14 0.00 100
20260505152850 57 136 0.0 0.0 0.00 0.14 0.00 100
20260505151307 57 136 0.0 0.0 0.00 0.14 0.00 100
20260505123555 66 134 0.0 0.0 0.00 0.19 0.00 100
20260505122011 64 135 0.0 0.0 0.00 0.18 0.00 100
20260505114844 60 135 0.0 0.0 0.00 0.16 0.00 100
20260505113301 59 142 0.0 0.0 0.00 0.15 0.00 100
20260505111717 60 142 0.0 0.0 0.00 0.16 0.00 100
20260505110133 59 142 0.0 0.0 0.00 0.15 0.00 100
20260505101421 59 142 0.0 0.0 0.00 0.15 0.00 100
20260505095837 57 142 0.0 0.0 0.00 0.14 0.00 100
20260505094253 57 142 0.0 0.0 0.00 0.14 0.00 100
20260505092709 57 142 0.0 0.0 0.00 0.14 0.00 100
20260505091125 55 142 0.0 0.0 0.00 0.13 0.00 100
20260505085541 55 143 0.0 0.0 0.00 0.13 0.00 100
20260505083956 55 144 0.0 0.0 0.00 0.13 0.00 100
20260505082412 53 143 0.0 0.0 0.00 0.12 0.00 100
20260505080828 53 143 0.0 0.0 0.00 0.12 0.00 100
20260505075243 53 138 0.0 0.0 0.00 0.12 0.00 100
20260505073658 51 135 0.0 0.0 0.00 0.11 0.00 100
20260505072113 51 132 0.0 0.0 0.00 0.11 0.00 100
20260505070529 51 132 0.0 0.0 0.00 0.11 0.00 100
20260505064944 51 132 0.0 0.0 0.00 0.11 0.00 100
20260505063359 51 133 0.0 0.0 0.00 0.11 0.00 100
20260505061815 51 134 0.0 0.0 0.00 0.11 0.00 100
20260505060230 51 134 0.0 0.0 0.00 0.11 0.00 100
20260505054645 51 134 0.0 0.0 0.00 0.11 0.00 100
20260505053100 50 133 0.0 0.0 0.00 0.10 0.00 100
20260505051515 50 130 0.0 0.0 0.00 0.10 0.00 100
20260505041338 48 124 0.0 0.0 0.00 0.09 0.00 100
20260505035630 48 124 0.0 0.0 0.00 0.09 0.00 100
20260505032500 48 124 0.0 0.0 0.00 0.09 0.00 100
20260505030914 48 125 0.0 0.0 0.00 0.09 0.00 100
20260505025329 48 125 0.0 0.0 0.00 0.09 0.00 100
20260505023744 48 125 0.0 0.0 0.00 0.09 0.00 100
20260505022159 48 125 0.0 0.0 0.00 0.09 0.00 100
20260505020614 48 125 0.0 0.0 0.00 0.09 0.00 100
20260505015029 48 125 0.0 0.0 0.00 0.09 0.00 100
20260505013444 48 125 0.0 0.0 0.00 0.09 0.00 100
20260505011859 48 125 0.0 0.0 0.00 0.09 0.00 100
20260505010314 48 125 0.0 0.0 0.00 0.09 0.00 100
20260505004728 50 125 0.0 0.0 0.00 0.10 0.00 100